"Time","Value","Approval","myLocation"
"2023-03-30 00:00",14.5508411342826,"Approved","OW118"
"2023-03-30 01:00",14.5509629223113,"Approved","OW118"
"2023-03-30 02:00",14.55008471034,"Approved","OW118"
"2023-03-30 03:00",14.5512064983686,"Approved","OW118"
"2023-03-30 04:00",14.5513282863973,"Approved","OW118"
"2023-03-30 05:00",14.551450074426,"Approved","OW118"
"2023-03-30 06:00",14.5505718624547,"Approved","OW118"
"2023-03-30 07:00",14.5496936504834,"Approved","OW118"
"2023-03-30 08:00",14.5488154385121,"Approved","OW118"
"2023-03-30 09:00",14.5469372265408,"Approved","OW118"
"2023-03-30 10:00",14.5460590145695,"Approved","OW118"
"2023-03-30 11:00",14.5451808025981,"Approved","OW118"
"2023-03-30 12:00",14.5443025906268,"Approved","OW118"
"2023-03-30 13:00",14.5454243786555,"Approved","OW118"
"2023-03-30 14:00",14.5455461666842,"Approved","OW118"
"2023-03-30 15:00",14.5466679547129,"Approved","OW118"
"2023-03-30 16:00",14.5477897427416,"Approved","OW118"
"2023-03-30 17:00",14.5479115307703,"Approved","OW118"
"2023-03-30 18:00",14.547033318799,"Approved","OW118"
"2023-03-30 19:00",14.5461551068276,"Approved","OW118"
"2023-03-30 20:00",14.5442768948563,"Approved","OW118"
"2023-03-30 21:00",14.543398682885,"Approved","OW118"
"2023-03-30 22:00",14.5425204709137,"Approved","OW118"
"2023-03-30 23:00",14.5416422589424,"Approved","OW118"
"2023-03-31 00:00",14.5417640469711,"Approved","OW118"
"2023-03-31 01:00",14.5418858349998,"Approved","OW118"
"2023-03-31 02:00",14.5440076230285,"Approved","OW118"
"2023-03-31 03:00",14.5451294110572,"Approved","OW118"
"2023-03-31 04:00",14.5482511990858,"Approved","OW118"
"2023-03-31 05:00",14.5503729871145,"Approved","OW118"
"2023-03-31 06:00",14.5524947751432,"Approved","OW118"
"2023-03-31 07:00",14.5526165631719,"Approved","OW118"
"2023-03-31 08:00",14.5537383512006,"Approved","OW118"
"2023-03-31 09:00",14.5538601392293,"Approved","OW118"
"2023-03-31 10:00",14.552981927258,"Approved","OW118"
"2023-03-31 11:00",14.5531037152867,"Approved","OW118"
"2023-03-31 12:00",14.5532255033153,"Approved","OW118"
"2023-03-31 13:00",14.554347291344,"Approved","OW118"
"2023-03-31 14:00",14.5544690793727,"Approved","OW118"
"2023-03-31 15:00",14.5555908674014,"Approved","OW118"
"2023-03-31 16:00",14.5567126554301,"Approved","OW118"
"2023-03-31 17:00",14.5568344434588,"Approved","OW118"
"2023-03-31 18:00",14.5579562314875,"Approved","OW118"
"2023-03-31 19:00",14.5580780195162,"Approved","OW118"
"2023-03-31 20:00",14.5571998075448,"Approved","OW118"
"2023-03-31 21:00",14.5573215955735,"Approved","OW118"
"2023-03-31 22:00",14.5584433836022,"Approved","OW118"
"2023-03-31 23:00",14.5575651716309,"Approved","OW118"
"2023-04-01 00:00",14.5576869596596,"Approved","OW118"
"2023-04-01 01:00",14.5588087476883,"Approved","OW118"
"2023-04-01 02:00",14.559930535717,"Approved","OW118"
"2023-04-01 03:00",14.5610523237457,"Approved","OW118"
"2023-04-01 04:00",14.5611741117743,"Approved","OW118"
"2023-04-01 05:00",14.560295899803,"Approved","OW118"
"2023-04-01 06:00",14.5584176878317,"Approved","OW118"
"2023-04-01 07:00",14.5565394758604,"Approved","OW118"
"2023-04-01 08:00",14.5536612638891,"Approved","OW118"
"2023-04-01 09:00",14.5507830519178,"Approved","OW118"
"2023-04-01 10:00",14.5479048399465,"Approved","OW118"
"2023-04-01 11:00",14.5450266279752,"Approved","OW118"
"2023-04-01 12:00",14.5441484160038,"Approved","OW118"
"2023-04-01 13:00",14.5432702040325,"Approved","OW118"
"2023-04-01 14:00",14.5443919920612,"Approved","OW118"
"2023-04-01 15:00",14.5455137800899,"Approved","OW118"
"2023-04-01 16:00",14.5466355681186,"Approved","OW118"
"2023-04-01 17:00",14.5467573561473,"Approved","OW118"
"2023-04-01 18:00",14.546879144176,"Approved","OW118"
"2023-04-01 19:00",14.5460009322047,"Approved","OW118"
"2023-04-01 20:00",14.5461227202334,"Approved","OW118"
"2023-04-01 21:00",14.546244508262,"Approved","OW118"
"2023-04-01 22:00",14.5443662962907,"Approved","OW118"
"2023-04-01 23:00",14.5454880843194,"Approved","OW118"
"2023-04-02 00:00",14.5486098723481,"Approved","OW118"
"2023-04-02 01:00",14.5497316603768,"Approved","OW118"
"2023-04-02 02:00",14.5518534484055,"Approved","OW118"
"2023-04-02 03:00",14.5559752364342,"Approved","OW118"
"2023-04-02 04:00",14.5590970244629,"Approved","OW118"
"2023-04-02 05:00",14.5602188124915,"Approved","OW118"
"2023-04-02 06:00",14.5623406005202,"Approved","OW118"
"2023-04-02 07:00",14.5614623885489,"Approved","OW118"
"2023-04-02 08:00",14.5615841765776,"Approved","OW118"
"2023-04-02 09:00",14.5607059646063,"Approved","OW118"
"2023-04-02 10:00",14.558827752635,"Approved","OW118"
"2023-04-02 11:00",14.5589495406637,"Approved","OW118"
"2023-04-02 12:00",14.5590713286924,"Approved","OW118"
"2023-04-02 13:00",14.559193116721,"Approved","OW118"
"2023-04-02 14:00",14.5613149047497,"Approved","OW118"
"2023-04-02 15:00",14.5624366927784,"Approved","OW118"
"2023-04-02 16:00",14.5635584808071,"Approved","OW118"
"2023-04-02 17:00",14.5646802688358,"Approved","OW118"
"2023-04-02 18:00",14.5648020568645,"Approved","OW118"
"2023-04-02 19:00",14.5639238448932,"Approved","OW118"
"2023-04-02 20:00",14.5620456329219,"Approved","OW118"
"2023-04-02 21:00",14.5591674209505,"Approved","OW118"
"2023-04-02 22:00",14.5572892089792,"Approved","OW118"
"2023-04-02 23:00",14.5554109970079,"Approved","OW118"
"2023-04-03 00:00",14.5565327850366,"Approved","OW118"
"2023-04-03 01:00",14.5576545730653,"Approved","OW118"
"2023-04-03 02:00",14.559776361094,"Approved","OW118"
"2023-04-03 03:00",14.5618981491227,"Approved","OW118"
"2023-04-03 04:00",14.5660199371514,"Approved","OW118"
"2023-04-03 05:00",14.5681417251801,"Approved","OW118"
"2023-04-03 06:00",14.5692635132087,"Approved","OW118"
"2023-04-03 07:00",14.5703853012374,"Approved","OW118"
"2023-04-03 08:00",14.5695070892661,"Approved","OW118"
"2023-04-03 09:00",14.5696288772948,"Approved","OW118"
"2023-04-03 10:00",14.5677506653235,"Approved","OW118"
"2023-04-03 11:00",14.5678724533522,"Approved","OW118"
"2023-04-03 12:00",14.5669942413809,"Approved","OW118"
"2023-04-03 13:00",14.5681160294096,"Approved","OW118"
"2023-04-03 14:00",14.5692378174382,"Approved","OW118"
"2023-04-03 15:00",14.5713596054669,"Approved","OW118"
"2023-04-03 16:00",14.5734813934956,"Approved","OW118"
"2023-04-03 17:00",14.5746031815243,"Approved","OW118"
"2023-04-03 18:00",14.574724969553,"Approved","OW118"
"2023-04-03 19:00",14.5728467575817,"Approved","OW118"
"2023-04-03 20:00",14.5709685456104,"Approved","OW118"
"2023-04-03 21:00",14.5680903336391,"Approved","OW118"
"2023-04-03 22:00",14.5662121216677,"Approved","OW118"
"2023-04-03 23:00",14.5643339096964,"Approved","OW118"
"2023-04-04 00:00",14.5654556977251,"Approved","OW118"
"2023-04-04 01:00",14.5645774857538,"Approved","OW118"
"2023-04-04 02:00",14.5666992737825,"Approved","OW118"
"2023-04-04 03:00",14.5688210618112,"Approved","OW118"
"2023-04-04 04:00",14.5719428498399,"Approved","OW118"
"2023-04-04 05:00",14.5740646378686,"Approved","OW118"
"2023-04-04 06:00",14.5761864258972,"Approved","OW118"
"2023-04-04 07:00",14.5773082139259,"Approved","OW118"
"2023-04-04 08:00",14.5774300019546,"Approved","OW118"
"2023-04-04 09:00",14.5775517899833,"Approved","OW118"
"2023-04-04 10:00",14.575673578012,"Approved","OW118"
"2023-04-04 11:00",14.5747953660407,"Approved","OW118"
"2023-04-04 12:00",14.5749171540694,"Approved","OW118"
"2023-04-04 13:00",14.5760389420981,"Approved","OW118"
"2023-04-04 14:00",14.5781607301267,"Approved","OW118"
"2023-04-04 15:00",14.5802825181554,"Approved","OW118"
"2023-04-04 16:00",14.5834043061841,"Approved","OW118"
"2023-04-04 17:00",14.5845260942128,"Approved","OW118"
"2023-04-04 18:00",14.5866478822415,"Approved","OW118"
"2023-04-04 19:00",14.5857696702702,"Approved","OW118"
"2023-04-04 20:00",14.5838914582989,"Approved","OW118"
"2023-04-04 21:00",14.5810132463276,"Approved","OW118"
"2023-04-04 22:00",14.5801350343563,"Approved","OW118"
"2023-04-04 23:00",14.5782568223849,"Approved","OW118"
"2023-04-05 00:00",14.5763786104136,"Approved","OW118"
"2023-04-05 01:00",14.5755003984423,"Approved","OW118"
"2023-04-05 02:00",14.575622186471,"Approved","OW118"
"2023-04-05 03:00",14.5777439744997,"Approved","OW118"
"2023-04-05 04:00",14.5808657625284,"Approved","OW118"
"2023-04-05 05:00",14.5839875505571,"Approved","OW118"
"2023-04-05 06:00",14.5851093385858,"Approved","OW118"
"2023-04-05 07:00",14.5862311266144,"Approved","OW118"
"2023-04-05 08:00",14.5883529146431,"Approved","OW118"
"2023-04-05 09:00",14.5874747026718,"Approved","OW118"
"2023-04-05 10:00",14.5855964907005,"Approved","OW118"
"2023-04-05 11:00",14.5847182787292,"Approved","OW118"
"2023-04-05 12:00",14.5838400667579,"Approved","OW118"
"2023-04-05 13:00",14.5839618547866,"Approved","OW118"
"2023-04-05 14:00",14.5850836428153,"Approved","OW118"
"2023-04-05 15:00",14.5862054308439,"Approved","OW118"
"2023-04-05 16:00",14.5883272188726,"Approved","OW118"
"2023-04-05 17:00",14.5884490069013,"Approved","OW118"
"2023-04-05 18:00",14.58857079493,"Approved","OW118"
"2023-04-05 19:00",14.5876925829587,"Approved","OW118"
"2023-04-05 20:00",14.5848143709874,"Approved","OW118"
"2023-04-05 21:00",14.5819361590161,"Approved","OW118"
"2023-04-05 22:00",14.5790579470448,"Approved","OW118"
"2023-04-05 23:00",14.5751797350734,"Approved","OW118"
"2023-04-06 00:00",14.5713015231021,"Approved","OW118"
"2023-04-06 01:00",14.5694233111308,"Approved","OW118"
"2023-04-06 02:00",14.5685450991595,"Approved","OW118"
"2023-04-06 03:00",14.5676668871882,"Approved","OW118"
"2023-04-06 04:00",14.5707886752169,"Approved","OW118"
"2023-04-06 05:00",14.5739104632456,"Approved","OW118"
"2023-04-06 06:00",14.5750322512743,"Approved","OW118"
"2023-04-06 07:00",14.577154039303,"Approved","OW118"
"2023-04-06 08:00",14.5792758273316,"Approved","OW118"
"2023-04-06 09:00",14.5783976153603,"Approved","OW118"
"2023-04-06 10:00",14.577519403389,"Approved","OW118"
"2023-04-06 11:00",14.5766411914177,"Approved","OW118"
"2023-04-06 12:00",14.5747629794464,"Approved","OW118"
"2023-04-06 13:00",14.5738847674751,"Approved","OW118"
"2023-04-06 14:00",14.5750065555038,"Approved","OW118"
"2023-04-06 15:00",14.5771283435325,"Approved","OW118"
"2023-04-06 16:00",14.5782501315611,"Approved","OW118"
"2023-04-06 17:00",14.5793719195898,"Approved","OW118"
"2023-04-06 18:00",14.5814937076185,"Approved","OW118"
"2023-04-06 19:00",14.5806154956472,"Approved","OW118"
"2023-04-06 20:00",14.5797372836759,"Approved","OW118"
"2023-04-06 21:00",14.5778590717046,"Approved","OW118"
"2023-04-06 22:00",14.5749808597333,"Approved","OW118"
"2023-04-06 23:00",14.571102647762,"Approved","OW118"
"2023-04-07 00:00",14.5682244357906,"Approved","OW118"
"2023-04-07 01:00",14.5673462238193,"Approved","OW118"
"2023-04-07 02:00",14.565468011848,"Approved","OW118"
"2023-04-07 03:00",14.5645897998767,"Approved","OW118"
"2023-04-07 04:00",14.5647115879054,"Approved","OW118"
"2023-04-07 05:00",14.5648333759341,"Approved","OW118"
"2023-04-07 06:00",14.5639551639628,"Approved","OW118"
"2023-04-07 07:00",14.5650769519915,"Approved","OW118"
"2023-04-07 08:00",14.5651987400201,"Approved","OW118"
"2023-04-07 09:00",14.5643205280488,"Approved","OW118"
"2023-04-07 10:00",14.5624423160775,"Approved","OW118"
"2023-04-07 11:00",14.5605641041062,"Approved","OW118"
"2023-04-07 12:00",14.5586858921349,"Approved","OW118"
"2023-04-07 13:00",14.5578076801636,"Approved","OW118"
"2023-04-07 14:00",14.5579294681923,"Approved","OW118"
"2023-04-07 15:00",14.560051256221,"Approved","OW118"
"2023-04-07 16:00",14.5621730442496,"Approved","OW118"
"2023-04-07 17:00",14.5642948322783,"Approved","OW118"
"2023-04-07 18:00",14.566416620307,"Approved","OW118"
"2023-04-07 19:00",14.5675384083357,"Approved","OW118"
"2023-04-07 20:00",14.5686601963644,"Approved","OW118"
"2023-04-07 21:00",14.5667819843931,"Approved","OW118"
"2023-04-07 22:00",14.5639037724218,"Approved","OW118"
"2023-04-07 23:00",14.5610255604505,"Approved","OW118"
"2023-04-08 00:00",14.5581473484792,"Approved","OW118"
"2023-04-08 01:00",14.5552691365078,"Approved","OW118"
"2023-04-08 02:00",14.5533909245365,"Approved","OW118"
"2023-04-08 03:00",14.5525127125652,"Approved","OW118"
"2023-04-08 04:00",14.5536345005939,"Approved","OW118"
"2023-04-08 05:00",14.5547562886226,"Approved","OW118"
"2023-04-08 06:00",14.5568780766513,"Approved","OW118"
"2023-04-08 07:00",14.55799986468,"Approved","OW118"
"2023-04-08 08:00",14.5591216527087,"Approved","OW118"
"2023-04-08 09:00",14.5602434407373,"Approved","OW118"
"2023-04-08 10:00",14.561365228766,"Approved","OW118"
"2023-04-08 11:00",14.5614870167947,"Approved","OW118"
"2023-04-08 12:00",14.5616088048234,"Approved","OW118"
"2023-04-08 13:00",14.5617305928521,"Approved","OW118"
"2023-04-08 14:00",14.5638523808808,"Approved","OW118"
"2023-04-08 15:00",14.5659741689095,"Approved","OW118"
"2023-04-08 16:00",14.5690959569382,"Approved","OW118"
"2023-04-08 17:00",14.5712177449668,"Approved","OW118"
"2023-04-08 18:00",14.5753395329955,"Approved","OW118"
"2023-04-08 19:00",14.5784613210242,"Approved","OW118"
"2023-04-08 20:00",14.5795831090529,"Approved","OW118"
"2023-04-08 21:00",14.5817048970816,"Approved","OW118"
"2023-04-08 22:00",14.5808266851103,"Approved","OW118"
"2023-04-08 23:00",14.578948473139,"Approved","OW118"
"2023-04-09 00:00",14.5780702611677,"Approved","OW118"
"2023-04-09 01:00",14.5751920491963,"Approved","OW118"
"2023-04-09 02:00",14.574313837225,"Approved","OW118"
"2023-04-09 03:00",14.5734356252537,"Approved","OW118"
"2023-04-09 04:00",14.5755574132824,"Approved","OW118"
"2023-04-09 05:00",14.5776792013111,"Approved","OW118"
"2023-04-09 06:00",14.5788009893398,"Approved","OW118"
"2023-04-09 07:00",14.5789227773685,"Approved","OW118"
"2023-04-09 08:00",14.5790445653972,"Approved","OW118"
"2023-04-09 09:00",14.5791663534259,"Approved","OW118"
"2023-04-09 10:00",14.5772881414545,"Approved","OW118"
"2023-04-09 11:00",14.5784099294832,"Approved","OW118"
"2023-04-09 12:00",14.5775317175119,"Approved","OW118"
"2023-04-09 13:00",14.5756535055406,"Approved","OW118"
"2023-04-09 14:00",14.5757752935693,"Approved","OW118"
"2023-04-09 15:00",14.576897081598,"Approved","OW118"
"2023-04-09 16:00",14.5770188696267,"Approved","OW118"
"2023-04-09 17:00",14.5771406576554,"Approved","OW118"
"2023-04-09 18:00",14.579262445684,"Approved","OW118"
"2023-04-09 19:00",14.5803842337127,"Approved","OW118"
"2023-04-09 20:00",14.5815060217414,"Approved","OW118"
"2023-04-09 21:00",14.5806278097701,"Approved","OW118"
"2023-04-09 22:00",14.5787495977988,"Approved","OW118"
"2023-04-09 23:00",14.5758713858275,"Approved","OW118"
"2023-04-10 00:00",14.5729931738562,"Approved","OW118"
"2023-04-10 01:00",14.5701149618849,"Approved","OW118"
"2023-04-10 02:00",14.5672367499135,"Approved","OW118"
"2023-04-10 03:00",14.5673585379422,"Approved","OW118"
"2023-04-10 04:00",14.5664803259709,"Approved","OW118"
"2023-04-10 05:00",14.5676021139996,"Approved","OW118"
"2023-04-10 06:00",14.5697239020283,"Approved","OW118"
"2023-04-10 07:00",14.573845690057,"Approved","OW118"
"2023-04-10 08:00",14.5779674780857,"Approved","OW118"
"2023-04-10 09:00",14.5810892661144,"Approved","OW118"
"2023-04-10 10:00",14.581211054143,"Approved","OW118"
"2023-04-10 11:00",14.5813328421717,"Approved","OW118"
"2023-04-10 12:00",14.5804546302004,"Approved","OW118"
"2023-04-10 13:00",14.5795764182291,"Approved","OW118"
"2023-04-10 14:00",14.5796982062578,"Approved","OW118"
"2023-04-10 15:00",14.5798199942865,"Approved","OW118"
"2023-04-10 16:00",14.5799417823152,"Approved","OW118"
"2023-04-10 17:00",14.5820635703439,"Approved","OW118"
"2023-04-10 18:00",14.5841853583726,"Approved","OW118"
"2023-04-10 19:00",14.5853071464012,"Approved","OW118"
"2023-04-10 20:00",14.5854289344299,"Approved","OW118"
"2023-04-10 21:00",14.5865507224586,"Approved","OW118"
"2023-04-10 22:00",14.5866725104873,"Approved","OW118"
"2023-04-10 23:00",14.585794298516,"Approved","OW118"
"2023-04-11 00:00",14.5819160865447,"Approved","OW118"
"2023-04-11 01:00",14.5790378745734,"Approved","OW118"
"2023-04-11 02:00",14.5741596626021,"Approved","OW118"
"2023-04-11 03:00",14.5712814506307,"Approved","OW118"
"2023-04-11 04:00",14.5694032386594,"Approved","OW118"
"2023-04-11 05:00",14.5655250266881,"Approved","OW118"
"2023-04-11 06:00",14.5606468147168,"Approved","OW118"
"2023-04-11 07:00",14.5597686027455,"Approved","OW118"
"2023-04-11 08:00",14.5588903907742,"Approved","OW118"
"2023-04-11 09:00",14.5580121788029,"Approved","OW118"
"2023-04-11 10:00",14.5571339668316,"Approved","OW118"
"2023-04-11 11:00",14.5562557548602,"Approved","OW118"
"2023-04-11 12:00",14.5553775428889,"Approved","OW118"
"2023-04-11 13:00",14.5554993309176,"Approved","OW118"
"2023-04-11 14:00",14.5546211189463,"Approved","OW118"
"2023-04-11 15:00",14.556742906975,"Approved","OW118"
"2023-04-11 16:00",14.5578646950037,"Approved","OW118"
"2023-04-11 17:00",14.5599864830324,"Approved","OW118"
"2023-04-11 18:00",14.5631082710611,"Approved","OW118"
"2023-04-11 19:00",14.5652300590897,"Approved","OW118"
"2023-04-11 20:00",14.5673518471184,"Approved","OW118"
"2023-04-11 21:00",14.5684736351471,"Approved","OW118"
"2023-04-11 22:00",14.5695954231758,"Approved","OW118"
"2023-04-11 23:00",14.5737172112045,"Approved","OW118"
"2023-04-12 00:00",14.5738389992332,"Approved","OW118"
"2023-04-12 01:00",14.5729607872619,"Approved","OW118"
"2023-04-12 02:00",14.5740825752906,"Approved","OW118"
"2023-04-12 03:00",14.5752043633192,"Approved","OW118"
"2023-04-12 04:00",14.5763261513479,"Approved","OW118"
"2023-04-12 05:00",14.5764479393766,"Approved","OW118"
"2023-04-12 06:00",14.5765697274053,"Approved","OW118"
"2023-04-12 07:00",14.575691515434,"Approved","OW118"
"2023-04-12 08:00",14.5758133034627,"Approved","OW118"
"2023-04-12 09:00",14.5739350914914,"Approved","OW118"
"2023-04-12 10:00",14.5740568795201,"Approved","OW118"
"2023-04-12 11:00",14.5741786675488,"Approved","OW118"
"2023-04-12 12:00",14.5743004555774,"Approved","OW118"
"2023-04-12 13:00",14.5744222436061,"Approved","OW118"
"2023-04-12 14:00",14.5745440316348,"Approved","OW118"
"2023-04-12 15:00",14.5756658196635,"Approved","OW118"
"2023-04-12 16:00",14.5757876076922,"Approved","OW118"
"2023-04-12 17:00",14.5769093957209,"Approved","OW118"
"2023-04-12 18:00",14.5780311837496,"Approved","OW118"
"2023-04-12 19:00",14.5781529717783,"Approved","OW118"
"2023-04-12 20:00",14.5782747598069,"Approved","OW118"
"2023-04-12 21:00",14.5793965478356,"Approved","OW118"
"2023-04-12 22:00",14.5795183358643,"Approved","OW118"
"2023-04-12 23:00",14.579640123893,"Approved","OW118"
"2023-04-13 00:00",14.5787619119217,"Approved","OW118"
"2023-04-13 01:00",14.5798836999504,"Approved","OW118"
"2023-04-13 02:00",14.5790054879791,"Approved","OW118"
"2023-04-13 03:00",14.5791272760078,"Approved","OW118"
"2023-04-13 04:00",14.5792490640364,"Approved","OW118"
"2023-04-13 05:00",14.5783708520651,"Approved","OW118"
"2023-04-13 06:00",14.5764926400938,"Approved","OW118"
"2023-04-13 07:00",14.5756144281225,"Approved","OW118"
"2023-04-13 08:00",14.5747362161512,"Approved","OW118"
"2023-04-13 09:00",14.5738580041799,"Approved","OW118"
"2023-04-13 10:00",14.5729797922086,"Approved","OW118"
"2023-04-13 11:00",14.5731015802373,"Approved","OW118"
"2023-04-13 12:00",14.5722233682659,"Approved","OW118"
"2023-04-13 13:00",14.5733451562946,"Approved","OW118"
"2023-04-13 14:00",14.5744669443233,"Approved","OW118"
"2023-04-13 15:00",14.575588732352,"Approved","OW118"
"2023-04-13 16:00",14.5757105203807,"Approved","OW118"
"2023-04-13 17:00",14.5748323084094,"Approved","OW118"
"2023-04-13 18:00",14.5749540964381,"Approved","OW118"
"2023-04-13 19:00",14.5740758844668,"Approved","OW118"
"2023-04-13 20:00",14.5731976724955,"Approved","OW118"
"2023-04-13 21:00",14.5733194605241,"Approved","OW118"
"2023-04-13 22:00",14.5734412485528,"Approved","OW118"
"2023-04-13 23:00",14.5735630365815,"Approved","OW118"
"2023-04-14 00:00",14.5756848246102,"Approved","OW118"
"2023-04-14 01:00",14.5788066126389,"Approved","OW118"
"2023-04-14 02:00",14.5799284006676,"Approved","OW118"
"2023-04-14 03:00",14.5820501886963,"Approved","OW118"
"2023-04-14 04:00",14.583171976725,"Approved","OW118"
"2023-04-14 05:00",14.5832937647536,"Approved","OW118"
"2023-04-14 06:00",14.5834155527823,"Approved","OW118"
"2023-04-14 07:00",14.582537340811,"Approved","OW118"
"2023-04-14 08:00",14.5816591288397,"Approved","OW118"
"2023-04-14 09:00",14.5797809168684,"Approved","OW118"
"2023-04-14 10:00",14.5799027048971,"Approved","OW118"
"2023-04-14 11:00",14.5800244929258,"Approved","OW118"
"2023-04-14 12:00",14.5801462809545,"Approved","OW118"
"2023-04-14 13:00",14.5812680689831,"Approved","OW118"
"2023-04-14 14:00",14.5823898570118,"Approved","OW118"
"2023-04-14 15:00",14.5845116450405,"Approved","OW118"
"2023-04-14 16:00",14.5846334330692,"Approved","OW118"
"2023-04-14 17:00",14.5857552210979,"Approved","OW118"
"2023-04-14 18:00",14.5848770091266,"Approved","OW118"
"2023-04-14 19:00",14.5839987971553,"Approved","OW118"
"2023-04-14 20:00",14.584120585184,"Approved","OW118"
"2023-04-14 21:00",14.5832423732126,"Approved","OW118"
"2023-04-14 22:00",14.5843641612413,"Approved","OW118"
"2023-04-14 23:00",14.58548594927,"Approved","OW118"
"2023-04-15 00:00",14.5856077372987,"Approved","OW118"
"2023-04-15 01:00",14.5877295253274,"Approved","OW118"
"2023-04-15 02:00",14.5898513133561,"Approved","OW118"
"2023-04-15 03:00",14.5909731013848,"Approved","OW118"
"2023-04-15 04:00",14.5930948894135,"Approved","OW118"
"2023-04-15 05:00",14.5962166774422,"Approved","OW118"
"2023-04-15 06:00",14.5963384654708,"Approved","OW118"
"2023-04-15 07:00",14.5954602534995,"Approved","OW118"
"2023-04-15 08:00",14.5945820415282,"Approved","OW118"
"2023-04-15 09:00",14.5937038295569,"Approved","OW118"
"2023-04-15 10:00",14.5928256175856,"Approved","OW118"
"2023-04-15 11:00",14.5929474056143,"Approved","OW118"
"2023-04-15 12:00",14.593069193643,"Approved","OW118"
"2023-04-15 13:00",14.5941909816717,"Approved","OW118"
"2023-04-15 14:00",14.5953127697003,"Approved","OW118"
"2023-04-15 15:00",14.597434557729,"Approved","OW118"
"2023-04-15 16:00",14.5975563457577,"Approved","OW118"
"2023-04-15 17:00",14.5976781337864,"Approved","OW118"
"2023-04-15 18:00",14.5967999218151,"Approved","OW118"
"2023-04-15 19:00",14.5949217098438,"Approved","OW118"
"2023-04-15 20:00",14.5920434978725,"Approved","OW118"
"2023-04-15 21:00",14.5911652859012,"Approved","OW118"
"2023-04-15 22:00",14.5912870739298,"Approved","OW118"
"2023-04-15 23:00",14.5914088619585,"Approved","OW118"
"2023-04-16 00:00",14.5925306499872,"Approved","OW118"
"2023-04-16 01:00",14.5956524380159,"Approved","OW118"
"2023-04-16 02:00",14.5987742260446,"Approved","OW118"
"2023-04-16 03:00",14.5988960140733,"Approved","OW118"
"2023-04-16 04:00",14.601017802102,"Approved","OW118"
"2023-04-16 05:00",14.6011395901307,"Approved","OW118"
"2023-04-16 06:00",14.5992613781593,"Approved","OW118"
"2023-04-16 07:00",14.597383166188,"Approved","OW118"
"2023-04-16 08:00",14.5955049542167,"Approved","OW118"
"2023-04-16 09:00",14.5916267422454,"Approved","OW118"
"2023-04-16 10:00",14.5897485302741,"Approved","OW118"
"2023-04-16 11:00",14.5868703183028,"Approved","OW118"
"2023-04-16 12:00",14.5849921063315,"Approved","OW118"
"2023-04-16 13:00",14.5841138943602,"Approved","OW118"
"2023-04-16 14:00",14.5822356823889,"Approved","OW118"
"2023-04-16 15:00",14.5813574704175,"Approved","OW118"
"2023-04-16 16:00",14.5804792584462,"Approved","OW118"
"2023-04-16 17:00",14.5796010464749,"Approved","OW118"
"2023-04-16 18:00",14.5777228345036,"Approved","OW118"
"2023-04-16 19:00",14.5748446225323,"Approved","OW118"